Home   Weather   Washington County   Past weeks
Flag for USA

Past Weather in Washington County, Illinois, USA — Yesterday and Last 2 Weeks

Now
36 °F

Passing clouds.


Feels Like: 30 °F
Forecast: 58 / 36 °F
Wind: 7 mph from Southeast

Location: Lambert-St. Louis International Airport

Current Time: Mar 23, 2019 at 7:53:32 am

Latest Report: Mar 23, 2019 at 6:51 am


Visibility: 10 mi

Pressure: 30.29 "Hg

Humidity: 75%

Dew Point: 29 °F

Location of Washington CountyLocation

Past Weather in Washington County — Graph

°F

Washington County Temperature Yesterday

Maximum temperature yesterday: 62 °F (at 2:51 pm)
Minimum temperature yesterday: 40 °F (at 2:51 am)
Average temperature yesterday: 50 °F

High & Low Weather Summary for the Past Weeks

 TemperatureHumidityPressure
High69 °F (Mar 13, 3:51 pm)97% (Mar 9, 10:12 am)30.49 "Hg (Mar 9, 10:12 am)
Low31 °F (Mar 16, 5:51 am)26% (Mar 11, 4:51 pm)29.34 "Hg (Mar 9, 3:58 pm)
Average45 °F61%30.11 "Hg
* Reported Mar 8 4:41 am — Mar 23 5:51 am, Washington County. Weather by CustomWeather, © 2019

Note: Actual official high and low records may vary slightly from our data, if they occured in-between our weather recording intervals... More about our weather records

Advertising

Washington County Weather History for the Previous 24 Hours

Scroll right to see more
 ConditionsComfort  
Time TempWeatherWind HumidityBarometerVisibility
5:51 am
Sat, Mar 23
38 °FPassing clouds.6 mph70%30.26 "Hg10 mi
4:51 am40 °FOvercast.5 mph68%30.24 "Hg10 mi
3:51 am40 °FPassing clouds.6 mph68%30.23 "Hg10 mi
2:51 am41 °FOvercast.7 mph67%30.22 "Hg10 mi
1:51 am42 °FOvercast.8 mph62%30.22 "Hg10 mi
12:51 am44 °FHigh level clouds.8 mph58%30.22 "Hg10 mi
11:51 pm
Fri, Mar 22
47 °FHigh level clouds.9 mph52%30.21 "Hg10 mi
10:51 pm47 °FPassing clouds.7 mph50%30.20 "Hg10 mi
9:51 pm50 °FPassing clouds.7 mph46%30.20 "Hg10 mi
8:51 pm52 °FPassing clouds.6 mph41%30.18 "Hg10 mi
7:51 pm56 °FPassing clouds.7 mph36%30.16 "Hg10 mi
6:51 pm57 °FScattered clouds.7 mph36%30.15 "Hg10 mi
5:51 pm61 °FPassing clouds.7 mph31%30.13 "Hg10 mi
4:51 pm61 °FPassing clouds.7 mph32%30.14 "Hg10 mi
3:51 pm61 °FPassing clouds.12 mph32%30.14 "Hg10 mi
2:51 pm62 °FPassing clouds.10 mph29%30.15 "Hg10 mi
1:51 pm61 °FPassing clouds.12 mph31%30.16 "Hg10 mi
12:51 pm58 °FPassing clouds.10 mph36%30.16 "Hg10 mi
11:51 am56 °FSunny.12 mph42%30.17 "Hg10 mi
10:51 am53 °FSunny.10 mph48%30.16 "Hg10 mi
9:51 am49 °FPassing clouds.8 mph59%30.15 "Hg10 mi
8:51 am46 °FPassing clouds.12 mph63%30.13 "Hg10 mi
7:51 am42 °FSunny.8 mph71%30.13 "Hg10 mi
Weather by CustomWeather, © 2019

See weather overview